TimeEDT,TemperatureF,Dew PointF,Humidity,Sea Level PressureIn,VisibilityMPH,Wind Direction,Wind SpeedMPH,Gust SpeedMPH,PrecipitationIn,Events,Conditions,WindDirDegrees,DateUTC
12:56 AM,73.9,71.1,91,29.86,10.0,SW,4.6,-,N/A,,Mostly Cloudy,230,2013-07-25 04:56:00
1:56 AM,73.0,71.1,93,29.86,10.0,WSW,4.6,-,N/A,,Mostly Cloudy,240,2013-07-25 05:56:00
2:56 AM,73.0,71.1,93,29.86,10.0,WSW,5.8,-,N/A,,Mostly Cloudy,250,2013-07-25 06:56:00
3:56 AM,73.0,71.1,93,29.83,10.0,SSW,6.9,-,N/A,,Mostly Cloudy,210,2013-07-25 07:56:00
4:56 AM,72.0,70.0,93,29.85,10.0,WSW,5.8,-,N/A,,Mostly Cloudy,250,2013-07-25 08:56:00
5:56 AM,72.0,70.0,93,29.86,10.0,West,4.6,-,N/A,,Mostly Cloudy,260,2013-07-25 09:56:00
6:40 AM,71.6,71.6,100,29.87,10.0,WSW,6.9,-,N/A,,Mostly Cloudy,250,2013-07-25 10:40:00
6:46 AM,71.6,71.6,100,29.87,10.0,WSW,5.8,-,N/A,,Mostly Cloudy,250,2013-07-25 10:46:00
7:56 AM,73.0,71.1,93,29.89,10.0,WSW,6.9,-,N/A,,Mostly Cloudy,250,2013-07-25 11:56:00
8:05 AM,73.4,71.6,94,29.89,10.0,West,6.9,-,N/A,,Mostly Cloudy,260,2013-07-25 12:05:00
8:56 AM,75.0,71.1,87,29.90,10.0,West,9.2,-,N/A,,Overcast,270,2013-07-25 12:56:00
9:56 AM,75.9,71.1,85,29.92,10.0,WNW,9.2,-,N/A,,Overcast,290,2013-07-25 13:56:00
10:42 AM,78.8,71.6,78,29.92,10.0,West,9.2,-,N/A,,Overcast,260,2013-07-25 14:42:00
10:56 AM,78.1,73.0,84,29.92,10.0,SW,9.2,-,N/A,,Overcast,230,2013-07-25 14:56:00
11:35 AM,80.6,73.4,79,29.92,10.0,West,6.9,-,N/A,,Mostly Cloudy,280,2013-07-25 15:35:00
11:56 AM,82.9,73.9,74,29.92,10.0,West,6.9,-,N/A,,Mostly Cloudy,260,2013-07-25 15:56:00
12:56 PM,84.9,73.9,69,29.93,10.0,WNW,6.9,-,N/A,,Mostly Cloudy,290,2013-07-25 16:56:00
1:56 PM,88.0,73.0,61,29.92,10.0,West,6.9,-,N/A,,Overcast,260,2013-07-25 17:56:00
2:56 PM,87.1,73.0,63,29.91,10.0,WSW,11.5,-,N/A,,Overcast,240,2013-07-25 18:56:00
3:56 PM,88.0,73.9,63,29.91,10.0,West,9.2,-,N/A,,Overcast,270,2013-07-25 19:56:00
4:56 PM,88.0,75.0,65,29.90,10.0,West,9.2,-,0.08,,Mostly Cloudy,280,2013-07-25 20:56:00
5:56 PM,89.1,73.0,59,29.90,10.0,WNW,6.9,-,N/A,,Mostly Cloudy,290,2013-07-25 21:56:00
6:56 PM,88.0,72.0,59,29.90,10.0,WNW,5.8,-,N/A,,Mostly Cloudy,300,2013-07-25 22:56:00
7:56 PM,84.9,73.9,69,29.92,10.0,NNW,4.6,-,N/A,,Mostly Cloudy,340,2013-07-25 23:56:00
8:56 PM,82.0,75.0,79,29.94,10.0,Calm,Calm,-,N/A,,Mostly Cloudy,0,2013-07-26 00:56:00
9:56 PM,81.0,75.9,85,29.95,10.0,Calm,Calm,-,N/A,,Mostly Cloudy,0,2013-07-26 01:56:00
10:56 PM,79.0,75.0,88,29.96,9.0,Calm,Calm,-,N/A,,Scattered Clouds,0,2013-07-26 02:56:00
11:56 PM,75.9,75.0,97,29.96,7.0,Calm,Calm,-,N/A,,Scattered Clouds,0,2013-07-26 03:56:00